2019-036P (44352 NORAD) Tracking and Keplerian Element Data

This shows tracking and keplerian element data for the satellite.

Feedback or suggestion? Click here.




ElementValue
Catalog44352
Name2019-036P
Epoch Orbit334
Epoch Day198.93137459
Epoch Year2019
RAAN53.7973
Inclination28.5375
Eccentricity0.0389439
Argument of Perigee344.9083
Mean Anonmoly14.0178
Mean Motion14.96705248
Decay Rate6.17E-05
L11 44352U 19036P 19198.93137459 .00006170 00000-0 94702-4 0 9996
L22 44352 28.5375 53.7973 0389439 344.9083 14.0178 14.96705248 3348

Live tracking and technical data element details for 2019-036P (NORAD 44352). 2019-036P can be tracked NOW for your location showing map with azimuth and elevation plus other details from your city location.

Track the satellite on the map from your city or location and see movement details for azimuth, elevation, latitude, longitude, range, height, and movement on the map or in text.







IsCatalogInMostPopularTable: catalog: 44352, numindb: 2
Update: records affected: 1



GetName: 44352 2019-036P

Hit Count: updated at: Fri, 19 Jul 2019 08:08:46 GMT